Location: Oshawa
(43.9000°N, 78.8670°W)
Time: 08:51:36
(UTC-04:00)

Explorer 7 - Visible Passes

Search period start: 27 August 2014 00:00
Search period end: 06 September 2014 00:00
Orbit: 492 x 706 km, 50.3° (Epoch: 25 August)

Date Brightness Start Highest point End Pass type
(mag) Time Alt. Az. Time Alt. Az. Time Alt. Az.
27 Aug 7.4 04:03:15 48° N 04:03:15 48° N 04:06:38 10° ENE visible
27 Aug 8.2 05:40:55 10° WNW 05:44:19 30° N 05:47:43 10° ENE visible
28 Aug 7.7 04:13:12 37° NNW 04:13:31 38° NNW 04:17:04 10° NE visible
28 Aug 8.2 05:51:32 10° WNW 05:54:59 32° N 05:58:26 10° ENE visible
29 Aug 9.8 02:46:29 12° ENE 02:46:29 12° ENE 02:46:45 10° ENE visible
29 Aug 8.0 04:23:09 28° NW 04:24:09 32° N 04:27:35 10° ENE visible
29 Aug 7.9 06:02:03 10° NW 06:05:37 38° NNE 06:09:11 10° E visible
30 Aug 9.6 02:56:28 15° NE 02:56:28 15° NE 02:57:10 10° ENE visible
30 Aug 8.2 04:33:09 22° NW 04:34:48 30° N 04:38:12 10° ENE visible
31 Aug 9.4 03:06:30 17° NE 03:06:30 17° NE 03:07:35 10° NE visible
31 Aug 8.2 04:43:11 17° NW 04:45:27 32° N 04:48:53 10° ENE visible
01 Sep 9.2 03:16:36 20° NE 03:16:36 20° NE 03:18:05 10° ENE visible
01 Sep 7.9 04:53:17 15° NW 04:56:05 37° NNE 04:59:38 10° E visible
02 Sep 9.0 03:26:48 23° NE 03:26:48 23° NE 03:28:40 10° ENE visible
02 Sep 7.5 05:03:29 13° NW 05:06:40 48° NNE 05:10:20 10° E visible
03 Sep 8.8 03:37:08 26° NE 03:37:08 26° NE 03:39:21 10° ENE visible
03 Sep 6.8 05:13:50 13° WNW 05:17:10 72° NNE 05:20:56 10° ESE visible
04 Sep 8.5 03:47:39 29° NE 03:47:39 29° NE 03:50:04 10° E visible
04 Sep 6.5 05:24:22 14° WNW 05:27:35 71° SSW 05:31:21 10° SE visible
05 Sep 8.3 03:58:25 32° ENE 03:58:25 32° ENE 04:00:46 10° E visible
05 Sep 7.0 05:35:09 15° WNW 05:37:55 40° SW 05:41:28 10° SSE visible
